| time (UTC) | temp C | wind direction | speed KPH | gust KPH | rain 1hr cm | rain 24hr cm | rain mn cm | humidity % | barometer mb |
| 20260506160030 | 25 | 360 | 0.0 | 0.0 | 0.00 | 0.00 | 0.00 | 86 | 1006.1 |
| 20260506155533 | 25 | 28 | 0.0 | 0.0 | 0.00 | 0.00 | 0.00 | 86 | 1006.1 |
| 20260506155036 | 25 | 26 | 0.0 | 0.0 | 0.00 | 0.00 | 0.00 | 86 | 1006.1 |
| 20260506154527 | 25 | 146 | 0.0 | 0.0 | 0.00 | 0.00 | 0.00 | 87 | 1005.8 |
| 20260506154032 | 25 | 146 | 0.0 | 0.0 | 0.00 | 0.00 | 0.00 | 88 | 1005.8 |
| 20260506153536 | 25 | 146 | 0.0 | 0.0 | 0.00 | 0.00 | 0.00 | 87 | 1005.8 |
| 20260506153036 | 25 | 146 | 0.0 | 0.0 | 0.00 | 0.00 | 0.00 | 87 | 1005.2 |
| 20260506152538 | 25 | 146 | 0.0 | 0.0 | 0.00 | 0.00 | 0.00 | 87 | 1005.2 |
| 20260506152101 | 25 | 146 | 0.0 | 0.0 | 0.00 | 0.00 | 0.00 | 87 | 1005.2 |
| 20260506151540 | 25 | 146 | 0.0 | 0.0 | 0.00 | 0.00 | 0.00 | 88 | 1005.1 |
| 20260506151055 | 24 | 146 | 0.0 | 0.0 | 0.00 | 0.00 | 0.00 | 88 | 1005.1 |
| 20260506150535 | 24 | 146 | 0.0 | 0.0 | 0.00 | 0.00 | 0.00 | 88 | 1005.1 |
| 20260506150039 | 24 | 146 | 0.0 | 0.0 | 0.00 | 0.00 | 0.00 | 88 | 1005.1 |
| 20260506145601 | 24 | 146 | 0.0 | 0.0 | 0.00 | 0.00 | 0.00 | 88 | 1005.1 |
| 20260506145051 | 24 | 146 | 0.0 | 0.0 | 0.00 | 0.00 | 0.00 | 88 | 1005.1 |
| 20260506144531 | 24 | 146 | 0.0 | 0.0 | 0.00 | 0.00 | 0.00 | 88 | 1005.1 |
| 20260506144027 | 24 | 146 | 0.0 | 0.0 | 0.00 | 0.00 | 0.00 | 88 | 1005.1 |
| 20260506143531 | 24 | 146 | 0.0 | 0.0 | 0.00 | 0.00 | 0.00 | 88 | 1005.1 |
| 20260506143034 | 24 | 146 | 0.0 | 0.0 | 0.00 | 0.00 | 0.00 | 88 | 1005.1 |
| 20260506142538 | 24 | 146 | 0.0 | 0.0 | 0.00 | 0.00 | 0.00 | 88 | 1005.1 |
| 20260506142041 | 24 | 146 | 0.0 | 0.0 | 0.00 | 0.00 | 0.00 | 87 | 1005.1 |
| 20260506141528 | 24 | 147 | 0.0 | 0.0 | 0.00 | 0.00 | 0.00 | 87 | 1004.6 |
| 20260506141044 | 24 | 147 | 0.0 | 0.0 | 0.00 | 0.00 | 0.00 | 88 | 1004.6 |
| 20260506140555 | 24 | 147 | 0.0 | 0.0 | 0.00 | 0.00 | 0.00 | 87 | 1004.6 |
| 20260506140040 | 24 | 360 | 0.0 | 0.0 | 0.00 | 0.00 | 0.00 | 88 | 1004.1 |
| 20260506135604 | 24 | 150 | 0.0 | 0.0 | 0.00 | 0.00 | 0.00 | 88 | 1004.1 |
| 20260506135027 | 24 | 150 | 0.0 | 0.0 | 0.00 | 0.00 | 0.00 | 88 | 1004.1 |
| 20260506134530 | 24 | 150 | 0.0 | 0.0 | 0.00 | 0.00 | 0.00 | 89 | 1003.9 |
| 20260506134036 | 24 | 150 | 0.0 | 0.0 | 0.00 | 0.00 | 0.00 | 88 | 1003.9 |
| 20260506133542 | 24 | 150 | 0.0 | 0.0 | 0.00 | 0.00 | 0.00 | 88 | 1003.9 |
| 20260506133044 | 24 | 150 | 0.0 | 0.0 | 0.00 | 0.00 | 0.00 | 88 | 1003.8 |
| 20260506132536 | 24 | 150 | 0.0 | 0.0 | 0.00 | 0.00 | 0.00 | 89 | 1003.8 |
| 20260506132039 | 23 | 150 | 0.0 | 0.0 | 0.00 | 0.00 | 0.00 | 89 | 1003.8 |
| 20260506131603 | 23 | 150 | 0.0 | 0.0 | 0.00 | 0.00 | 0.00 | 89 | 1003.6 |
| 20260506131056 | 23 | 145 | 0.0 | 0.0 | 0.00 | 0.00 | 0.00 | 89 | 1003.6 |
| 20260506130529 | 23 | 155 | 0.0 | 0.0 | 0.00 | 0.00 | 0.00 | 89 | 1003.6 |
| 20260506130021 | 23 | 155 | 0.0 | 0.0 | 0.00 | 0.00 | 0.00 | 90 | 1003.6 |
| 20260506125529 | 23 | 155 | 0.0 | 0.0 | 0.00 | 0.00 | 0.00 | 90 | 1003.6 |
| 20260506125035 | 23 | 155 | 0.0 | 0.0 | 0.00 | 0.00 | 0.00 | 90 | 1003.6 |
| 20260506124537 | 23 | 155 | 0.0 | 0.0 | 0.00 | 0.00 | 0.00 | 90 | 1003.6 |
| 20260506124040 | 23 | 155 | 0.0 | 0.0 | 0.00 | 0.00 | 0.00 | 90 | 1003.6 |
| 20260506123547 | 23 | 155 | 0.0 | 0.0 | 0.00 | 0.00 | 0.00 | 90 | 1003.6 |
| 20260506123046 | 23 | 155 | 0.0 | 0.0 | 0.00 | 0.00 | 0.00 | 90 | 1003.5 |
| 20260506122548 | 23 | 155 | 0.0 | 0.0 | 0.00 | 0.00 | 0.00 | 90 | 1003.5 |
| 20260506122030 | 23 | 155 | 0.0 | 0.0 | 0.00 | 0.00 | 0.00 | 90 | 1003.5 |
| 20260506121532 | 23 | 155 | 0.0 | 0.0 | 0.00 | 0.00 | 0.00 | 90 | 1003.6 |
| 20260506121046 | 23 | 155 | 0.0 | 0.0 | 0.00 | 0.00 | 0.00 | 90 | 1003.6 |
| 20260506120550 | 23 | 155 | 0.0 | 0.0 | 0.00 | 0.00 | 0.00 | 90 | 1003.6 |
| 20260506120032 | 23 | 155 | 0.0 | 0.0 | 0.00 | 0.00 | 0.00 | 90 | 1003.4 |
| 20260506115526 | 23 | 155 | 0.0 | 0.0 | 0.00 | 0.00 | 0.00 | 90 | 1003.4 |
| 20260506115029 | 23 | 155 | 0.0 | 0.0 | 0.00 | 0.00 | 0.00 | 90 | 1003.4 |
| 20260506114533 | 23 | 155 | 0.0 | 0.0 | 0.00 | 0.00 | 0.00 | 90 | 1003.4 |
| 20260506114029 | 23 | 155 | 0.0 | 0.0 | 0.00 | 0.00 | 0.00 | 90 | 1003.4 |
| 20260506113551 | 23 | 155 | 0.0 | 0.0 | 0.00 | 0.00 | 0.00 | 90 | 1003.4 |
| 20260506113033 | 23 | 155 | 0.0 | 0.0 | 0.00 | 0.00 | 0.00 | 90 | 1003.2 |
| 20260506112555 | 23 | 155 | 0.0 | 0.0 | 0.00 | 0.00 | 0.00 | 89 | 1003.2 |
| 20260506112057 | 23 | 155 | 0.0 | 0.0 | 0.00 | 0.00 | 0.00 | 89 | 1003.2 |
| 20260506111541 | 23 | 155 | 0.0 | 0.0 | 0.00 | 0.00 | 0.00 | 89 | 1003.4 |
| 20260506111055 | 23 | 155 | 0.0 | 0.0 | 0.00 | 0.00 | 0.00 | 89 | 1003.4 |
| 20260506110605 | 23 | 155 | 0.0 | 0.0 | 0.00 | 0.00 | 0.00 | 89 | 1003.4 |
| 20260506110046 | 23 | 155 | 0.0 | 0.0 | 0.00 | 0.00 | 0.00 | 89 | 1003.1 |
| 20260506105529 | 23 | 155 | 0.0 | 0.0 | 0.00 | 0.00 | 0.00 | 89 | 1003.1 |
| 20260506105035 | 23 | 155 | 0.0 | 0.0 | 0.00 | 0.00 | 0.00 | 89 | 1003.1 |
| 20260506104536 | 23 | 155 | 0.0 | 0.0 | 0.00 | 0.00 | 0.00 | 88 | 1003.1 |
| 20260506104100 | 23 | 155 | 0.0 | 0.0 | 0.00 | 0.00 | 0.00 | 88 | 1003.1 |
| 20260506103529 | 23 | 156 | 0.0 | 0.0 | 0.00 | 0.00 | 0.00 | 88 | 1003.1 |
| 20260506103039 | 23 | 155 | 0.0 | 0.0 | 0.00 | 0.00 | 0.00 | 88 | 1003.1 |
| 20260506102541 | 23 | 155 | 0.0 | 0.0 | 0.00 | 0.00 | 0.00 | 88 | 1003.1 |
| 20260506102104 | 23 | 155 | 0.0 | 0.0 | 0.00 | 0.00 | 0.00 | 88 | 1003.1 |
| 20260506101524 | 23 | 155 | 0.0 | 0.0 | 0.00 | 0.00 | 0.00 | 88 | 1003.0 |
| 20260506101042 | 23 | 154 | 0.0 | 0.0 | 0.00 | 0.00 | 0.00 | 88 | 1003.0 |
| 20260506100532 | 23 | 155 | 0.0 | 0.0 | 0.00 | 0.00 | 0.00 | 88 | 1003.0 |
| 20260506100035 | 23 | 217 | 0.0 | 0.0 | 0.00 | 0.00 | 0.00 | 88 | 1003.0 |
| 20260506095543 | 23 | 217 | 0.0 | 0.0 | 0.00 | 0.00 | 0.00 | 88 | 1003.0 |
| 20260506095046 | 23 | 240 | 0.0 | 0.0 | 0.00 | 0.00 | 0.00 | 88 | 1003.0 |
| 20260506094529 | 23 | 173 | 0.0 | 0.0 | 0.00 | 0.00 | 0.00 | 88 | 1003.0 |
| 20260506094035 | 24 | 149 | 0.0 | 0.0 | 0.00 | 0.00 | 0.00 | 88 | 1003.0 |
| 20260506093537 | 23 | 150 | 0.0 | 0.0 | 0.00 | 0.00 | 0.00 | 88 | 1003.0 |
| 20260506093033 | 24 | 150 | 0.0 | 0.0 | 0.00 | 0.00 | 0.00 | 88 | 1002.7 |
| 20260506092534 | 24 | 149 | 0.0 | 0.0 | 0.00 | 0.00 | 0.00 | 88 | 1002.7 |
| 20260506092030 | 24 | 149 | 0.0 | 0.0 | 0.00 | 0.00 | 0.00 | 88 | 1002.7 |
| 20260506091535 | 24 | 149 | 1.6 | 0.0 | 0.00 | 0.00 | 0.00 | 87 | 1002.9 |
| 20260506091049 | 24 | 148 | 1.6 | 0.0 | 0.00 | 0.00 | 0.00 | 87 | 1002.9 |
| 20260506090540 | 24 | 148 | 0.0 | 0.0 | 0.00 | 0.00 | 0.00 | 87 | 1002.9 |
| 20260506090043 | 24 | 191 | 0.0 | 0.0 | 0.00 | 0.00 | 0.00 | 87 | 1002.8 |
| 20260506085544 | 24 | 191 | 0.0 | 0.0 | 0.00 | 0.00 | 0.00 | 87 | 1002.8 |
| 20260506085047 | 24 | 195 | 1.6 | 0.0 | 0.00 | 0.00 | 0.00 | 87 | 1002.8 |
| 20260506084529 | 24 | 140 | 1.6 | 0.0 | 0.00 | 0.00 | 0.00 | 87 | 1002.6 |
| 20260506084040 | 24 | 137 | 1.6 | 0.0 | 0.00 | 0.00 | 0.00 | 87 | 1002.6 |
| 20260506083603 | 24 | 171 | 0.0 | 0.0 | 0.00 | 0.00 | 0.00 | 87 | 1002.6 |
| 20260506083038 | 24 | 185 | 0.0 | 0.0 | 0.00 | 0.00 | 0.00 | 87 | 1002.7 |
| 20260506082539 | 24 | 184 | 0.0 | 0.0 | 0.00 | 0.00 | 0.00 | 87 | 1002.7 |
| 20260506082103 | 24 | 186 | 1.6 | 0.0 | 0.00 | 0.00 | 0.00 | 87 | 1002.7 |
| 20260506081548 | 24 | 176 | 1.6 | 0.0 | 0.00 | 0.00 | 0.00 | 87 | 1003.0 |
| 20260506081044 | 24 | 179 | 0.0 | 0.0 | 0.00 | 0.00 | 0.00 | 87 | 1003.0 |
| 20260506080539 | 24 | 179 | 0.0 | 0.0 | 0.00 | 0.00 | 0.00 | 87 | 1003.0 |
| 20260506073043 | 24 | 171 | 1.6 | 0.0 | 0.00 | 0.00 | 0.00 | 86 | 1003.1 |
| 20260506072535 | 24 | 146 | 3.2 | 0.0 | 0.00 | 0.00 | 0.00 | 87 | 1003.1 |
| 20260506072021 | 24 | 139 | 3.2 | 0.0 | 0.00 | 0.00 | 0.00 | 86 | 1003.1 |
| 20260506071530 | 24 | 145 | 1.6 | 0.0 | 0.00 | 0.00 | 0.00 | 87 | 1003.4 |
| 20260506071037 | 24 | 82 | 1.6 | 0.0 | 0.00 | 0.00 | 0.00 | 87 | 1003.4 |
| 20260506070531 | 24 | 165 | 1.6 | 0.0 | 0.00 | 0.00 | 0.00 | 87 | 1003.4 |
| 20260506062023 | 24 | 167 | 1.6 | 0.0 | 0.00 | 0.00 | 0.00 | 86 | 1003.6 |
| 20260506061531 | 24 | 141 | 0.0 | 0.0 | 0.00 | 0.00 | 0.00 | 86 | 1003.6 |
| 20260506061052 | 24 | 141 | 1.6 | 0.0 | 0.00 | 0.00 | 0.00 | 86 | 1003.6 |
| 20260506060545 | 24 | 143 | 1.6 | 0.0 | 0.00 | 0.00 | 0.00 | 86 | 1003.6 |
| 20260506051102 | 25 | 148 | 3.2 | 0.0 | 0.00 | 0.00 | 0.00 | 85 | 1003.6 |
| 20260506050531 | 25 | 154 | 1.6 | 0.0 | 0.00 | 0.00 | 0.00 | 85 | 1003.6 |
| 20260506045028 | 25 | 167 | 1.6 | 0.0 | 0.00 | 0.00 | 0.00 | 85 | 1003.6 |
| 20260506044537 | 25 | 157 | 1.6 | 0.0 | 0.00 | 0.00 | 0.00 | 85 | 1003.6 |
| 20260506044043 | 25 | 163 | 3.2 | 0.0 | 0.00 | 0.00 | 0.00 | 84 | 1003.6 |
| 20260506043526 | 25 | 150 | 4.8 | 0.0 | 0.00 | 0.00 | 0.00 | 84 | 1003.6 |
| 20260506043052 | 25 | 113 | 3.2 | 0.0 | 0.00 | 0.00 | 0.00 | 84 | 1003.6 |
| 20260506042532 | 25 | 165 | 3.2 | 0.0 | 0.00 | 0.00 | 0.00 | 85 | 1003.6 |
| 20260506042031 | 25 | 120 | 1.6 | 0.0 | 0.00 | 0.00 | 0.00 | 84 | 1003.6 |
| 20260506041533 | 25 | 131 | 0.0 | 0.0 | 0.00 | 0.00 | 0.00 | 85 | 1003.4 |
| 20260506041046 | 25 | 131 | 1.6 | 0.0 | 0.00 | 0.00 | 0.00 | 85 | 1003.4 |
| 20260506040549 | 25 | 151 | 1.6 | 0.0 | 0.00 | 0.00 | 0.00 | 84 | 1003.4 |
| 20260506040033 | 25 | 152 | 1.6 | 0.0 | 0.00 | 0.00 | 0.00 | 84 | 1003.2 |
| 20260506035535 | 25 | 150 | 1.6 | 0.0 | 0.00 | 0.00 | 0.00 | 84 | 1003.2 |
| 20260506035038 | 25 | 149 | 1.6 | 0.0 | 0.00 | 0.00 | 0.00 | 84 | 1003.2 |
| 20260506034544 | 25 | 146 | 1.6 | 0.0 | 0.00 | 0.00 | 0.00 | 84 | 1003.0 |
| 20260506034027 | 25 | 134 | 0.0 | 0.0 | 0.00 | 0.00 | 0.00 | 84 | 1003.0 |
| 20260506033548 | 25 | 134 | 1.6 | 0.0 | 0.00 | 0.00 | 0.00 | 84 | 1003.0 |
| 20260506033030 | 25 | 134 | 1.6 | 0.0 | 0.00 | 0.00 | 0.00 | 84 | 1002.9 |
| 20260506032531 | 25 | 134 | 1.6 | 0.0 | 0.00 | 0.00 | 0.00 | 84 | 1002.9 |
| 20260506032046 | 25 | 134 | 3.2 | 0.0 | 0.00 | 0.00 | 0.00 | 84 | 1002.9 |
| 20260506031528 | 25 | 124 | 3.2 | 0.0 | 0.00 | 0.00 | 0.00 | 84 | 1002.5 |
| 20260506031040 | 25 | 125 | 1.6 | 0.0 | 0.00 | 0.00 | 0.00 | 84 | 1002.5 |
| 20260506030551 | 25 | 158 | 1.6 | 0.0 | 0.00 | 0.00 | 0.00 | 84 | 1002.5 |
| 20260506030024 | 25 | 150 | 1.6 | 0.0 | 0.00 | 0.00 | 0.00 | 83 | 1002.5 |
| 20260506025532 | 25 | 151 | 0.0 | 0.0 | 0.00 | 0.00 | 0.00 | 83 | 1002.5 |
| 20260506025039 | 25 | 139 | 0.0 | 0.0 | 0.00 | 0.00 | 0.00 | 83 | 1002.5 |
| 20260506024534 | 25 | 141 | 0.0 | 0.0 | 0.00 | 0.00 | 0.00 | 83 | 1002.2 |
| 20260506024036 | 26 | 141 | 0.0 | 0.0 | 0.00 | 0.00 | 0.00 | 83 | 1002.2 |
| 20260506023044 | 26 | 143 | 0.0 | 0.0 | 0.00 | 0.00 | 0.00 | 82 | 1002.0 |
| 20260506022526 | 26 | 142 | 1.6 | 0.0 | 0.00 | 0.00 | 0.00 | 82 | 1002.0 |
| 20260506022033 | 26 | 143 | 1.6 | 0.0 | 0.00 | 0.00 | 0.00 | 82 | 1002.0 |
| 20260506021539 | 25 | 143 | 0.0 | 0.0 | 0.00 | 0.00 | 0.00 | 82 | 1001.9 |
| 20260506020042 | 25 | 236 | 0.0 | 0.0 | 0.00 | 0.00 | 0.00 | 82 | 1001.6 |
| 20260506015607 | 25 | 236 | 0.0 | 0.0 | 0.00 | 0.00 | 0.00 | 82 | 1001.6 |
| 20260506015102 | 25 | 236 | 0.0 | 0.0 | 0.00 | 0.00 | 0.00 | 82 | 1001.6 |
| 20260506014603 | 25 | 236 | 0.0 | 0.0 | 0.00 | 0.00 | 0.00 | 82 | 1001.4 |
| 20260506014035 | 26 | 236 | 0.0 | 0.0 | 0.00 | 0.00 | 0.00 | 82 | 1001.4 |
| 20260506013536 | 26 | 236 | 0.0 | 0.0 | 0.00 | 0.00 | 0.00 | 81 | 1001.4 |
| 20260506013039 | 26 | 236 | 0.0 | 0.0 | 0.00 | 0.00 | 0.00 | 80 | 1001.4 |
| 20260506012601 | 26 | 236 | 0.0 | 0.0 | 0.00 | 0.00 | 0.00 | 80 | 1001.4 |
| 20260506012043 | 26 | 360 | 0.0 | 0.0 | 0.00 | 0.00 | 0.00 | 78 | 1001.4 |
| 20260506011545 | 27 | 236 | 0.0 | 0.0 | 0.00 | 0.00 | 0.00 | 77 | 1001.4 |
| 20260506011046 | 27 | 236 | 0.0 | 0.0 | 0.00 | 0.00 | 0.00 | 77 | 1001.4 |
| 20260506010541 | 27 | 360 | 0.0 | 0.0 | 0.00 | 0.00 | 0.00 | 76 | 1001.4 |
| 20260506010047 | 28 | 360 | 0.0 | 0.0 | 0.00 | 0.00 | 0.00 | 75 | 1001.4 |
| 20260506005540 | 28 | 236 | 0.0 | 0.0 | 0.00 | 0.00 | 0.00 | 76 | 1001.4 |
| 20260506005042 | 28 | 236 | 0.0 | 0.0 | 0.00 | 0.00 | 0.00 | 74 | 1001.4 |
| 20260506004604 | 28 | 236 | 0.0 | 0.0 | 0.00 | 0.00 | 0.00 | 74 | 1001.3 |
| 20260506004046 | 28 | 236 | 0.0 | 0.0 | 0.00 | 0.00 | 0.00 | 73 | 1001.3 |
| 20260506003527 | 28 | 236 | 0.0 | 0.0 | 0.00 | 0.00 | 0.00 | 73 | 1001.3 |
| 20260506003032 | 28 | 236 | 0.0 | 0.0 | 0.00 | 0.00 | 0.00 | 72 | 1001.2 |
| 20260506002543 | 28 | 360 | 0.0 | 0.0 | 0.00 | 0.00 | 0.00 | 71 | 1001.2 |
| 20260506002027 | 29 | 236 | 0.0 | 0.0 | 0.00 | 0.00 | 0.00 | 71 | 1001.2 |
| 20260506001533 | 29 | 234 | 0.0 | 0.0 | 0.00 | 0.00 | 0.00 | 71 | 1001.0 |
| 20260506001048 | 29 | 233 | 0.0 | 0.0 | 0.00 | 0.00 | 0.00 | 70 | 1001.0 |
| 20260506000542 | 30 | 234 | 0.0 | 0.0 | 0.00 | 0.00 | 0.00 | 68 | 1001.0 |
| 20260506000032 | 30 | 238 | 0.0 | 0.0 | 0.00 | 0.00 | 0.00 | 69 | 1000.9 |
| 20260505235537 | 30 | 238 | 0.0 | 0.0 | 0.00 | 0.00 | 0.00 | 68 | 1000.9 |
| 20260505235039 | 30 | 238 | 0.0 | 0.0 | 0.00 | 0.00 | 0.00 | 67 | 1000.9 |
| 20260505234544 | 30 | 238 | 0.0 | 0.0 | 0.00 | 0.00 | 0.00 | 67 | 1000.9 |
| 20260505234046 | 30 | 236 | 0.0 | 0.0 | 0.00 | 0.00 | 0.00 | 70 | 1000.9 |
| 20260505233527 | 30 | 236 | 0.0 | 0.0 | 0.00 | 0.00 | 0.00 | 69 | 1000.9 |
| 20260505233101 | 30 | 236 | 0.0 | 0.0 | 0.00 | 0.00 | 0.00 | 68 | 1000.9 |
| 20260505232544 | 30 | 242 | 0.0 | 0.0 | 0.00 | 0.00 | 0.00 | 68 | 1000.9 |
| 20260505232047 | 30 | 242 | 0.0 | 0.0 | 0.00 | 0.00 | 0.00 | 67 | 1000.9 |
| 20260505231548 | 30 | 360 | 1.6 | 0.0 | 0.00 | 0.00 | 0.00 | 68 | 1000.8 |
| 20260505231041 | 30 | 360 | 1.6 | 0.0 | 0.00 | 0.00 | 0.00 | 67 | 1000.8 |
| 20260505230533 | 30 | 360 | 3.2 | 0.0 | 0.00 | 0.00 | 0.00 | 66 | 1000.8 |
| 20260505230025 | 30 | 169 | 3.2 | 0.0 | 0.00 | 0.00 | 0.00 | 68 | 1000.7 |
| 20260505225530 | 30 | 158 | 3.2 | 0.0 | 0.00 | 0.00 | 0.00 | 67 | 1000.7 |
| 20260505225033 | 30 | 167 | 1.6 | 0.0 | 0.00 | 0.00 | 0.00 | 65 | 1000.7 |
| 20260505224532 | 30 | 360 | 1.6 | 0.0 | 0.00 | 0.00 | 0.00 | 66 | 1000.9 |
| 20260505224034 | 30 | 170 | 1.6 | 0.0 | 0.00 | 0.00 | 0.00 | 68 | 1000.9 |
| 20260505223540 | 30 | 149 | 1.6 | 0.0 | 0.00 | 0.00 | 0.00 | 66 | 1000.9 |
| 20260505223034 | 30 | 158 | 1.6 | 0.0 | 0.00 | 0.00 | 0.00 | 68 | 1000.9 |
| 20260505222535 | 30 | 155 | 1.6 | 0.0 | 0.00 | 0.00 | 0.00 | 67 | 1000.9 |
| 20260505222026 | 30 | 130 | 1.6 | 0.0 | 0.00 | 0.00 | 0.00 | 68 | 1000.9 |
| 20260505221528 | 30 | 89 | 1.6 | 0.0 | 0.00 | 0.00 | 0.00 | 68 | 1000.9 |
| 20260505221041 | 30 | 143 | 1.6 | 0.0 | 0.00 | 0.00 | 0.00 | 66 | 1000.9 |
| 20260505220542 | 30 | 360 | 0.0 | 0.0 | 0.00 | 0.00 | 0.00 | 69 | 1000.9 |
| 20260505220028 | 30 | 360 | 0.0 | 0.0 | 0.00 | 0.00 | 0.00 | 68 | 1001.0 |
| 20260505215530 | 30 | 229 | 0.0 | 0.0 | 0.00 | 0.00 | 0.00 | 66 | 1001.0 |
| 20260505215036 | 30 | 360 | 0.0 | 0.0 | 0.00 | 0.00 | 0.00 | 68 | 1001.0 |
| 20260505214526 | 30 | 220 | 1.6 | 0.0 | 0.00 | 0.00 | 0.00 | 65 | 1001.4 |
| 20260505214032 | 30 | 235 | 1.6 | 0.0 | 0.00 | 0.00 | 0.00 | 66 | 1001.4 |
| 20260505213540 | 30 | 155 | 3.2 | 0.0 | 0.00 | 0.00 | 0.00 | 69 | 1001.4 |
| 20260505213033 | 30 | 153 | 1.6 | 0.0 | 0.00 | 0.00 | 0.00 | 70 | 1001.5 |
| 20260505212536 | 29 | 120 | 1.6 | 0.0 | 0.00 | 0.00 | 0.00 | 70 | 1001.5 |
| 20260505212038 | 28 | 174 | 1.6 | 0.0 | 0.00 | 0.00 | 0.00 | 69 | 1001.5 |
| 20260505211545 | 28 | 360 | 3.2 | 0.0 | 0.00 | 0.00 | 0.00 | 69 | 1001.7 |
| 20260505211039 | 28 | 360 | 4.8 | 0.0 | 0.00 | 0.00 | 0.00 | 68 | 1001.7 |
| 20260505210540 | 29 | 360 | 3.2 | 0.0 | 0.00 | 0.00 | 0.00 | 66 | 1001.7 |
| 20260505210025 | 30 | 158 | 1.6 | 0.0 | 0.00 | 0.00 | 0.00 | 68 | 1002.0 |
| 20260505205532 | 29 | 360 | 3.2 | 0.0 | 0.00 | 0.00 | 0.00 | 71 | 1002.0 |
| 20260505205034 | 29 | 155 | 4.8 | 0.0 | 0.00 | 0.00 | 0.00 | 69 | 1002.0 |
| 20260505204535 | 29 | 134 | 3.2 | 0.0 | 0.00 | 0.00 | 0.00 | 69 | 1002.2 |
| 20260505204046 | 29 | 360 | 3.2 | 0.0 | 0.00 | 0.00 | 0.00 | 68 | 1002.2 |
| 20260505203535 | 29 | 360 | 3.2 | 0.0 | 0.00 | 0.00 | 0.00 | 67 | 1002.2 |
| 20260505203037 | 29 | 167 | 3.2 | 0.0 | 0.00 | 0.00 | 0.00 | 69 | 1002.4 |
| 20260505202540 | 29 | 360 | 3.2 | 0.0 | 0.00 | 0.00 | 0.00 | 69 | 1002.4 |
| 20260505202043 | 28 | 360 | 1.6 | 0.0 | 0.00 | 0.00 | 0.00 | 69 | 1002.4 |
| 20260505201525 | 29 | 360 | 3.2 | 0.0 | 0.00 | 0.00 | 0.00 | 69 | 1002.5 |
| 20260505201039 | 29 | 149 | 3.2 | 0.0 | 0.00 | 0.00 | 0.00 | 70 | 1002.5 |
| 20260505200529 | 29 | 360 | 1.6 | 0.0 | 0.00 | 0.00 | 0.00 | 68 | 1002.5 |
| 20260505200032 | 29 | 360 | 1.6 | 0.0 | 0.00 | 0.00 | 0.00 | 68 | 1002.6 |
| 20260505195543 | 29 | 169 | 0.0 | 0.0 | 0.00 | 0.00 | 0.00 | 69 | 1002.6 |
| 20260505195025 | 29 | 360 | 1.6 | 0.0 | 0.00 | 0.00 | 0.00 | 69 | 1002.6 |
| 20260505194538 | 28 | 360 | 1.6 | 0.0 | 0.00 | 0.00 | 0.00 | 69 | 1003.0 |
| 20260505194041 | 28 | 204 | 1.6 | 0.0 | 0.00 | 0.00 | 0.00 | 71 | 1003.0 |
| 20260505193526 | 28 | 360 | 1.6 | 0.0 | 0.00 | 0.00 | 0.00 | 71 | 1002.9 |
| 20260505193029 | 28 | 144 | 1.6 | 0.0 | 0.00 | 0.00 | 0.00 | 71 | 1003.0 |
| 20260505192531 | 28 | 360 | 1.6 | 0.0 | 0.00 | 0.00 | 0.00 | 72 | 1003.0 |
| 20260505192042 | 28 | 360 | 3.2 | 0.0 | 0.00 | 0.00 | 0.00 | 72 | 1003.0 |
| 20260505191545 | 28 | 360 | 3.2 | 0.0 | 0.00 | 0.00 | 0.00 | 71 | 1003.1 |
| 20260505191039 | 28 | 360 | 3.2 | 0.0 | 0.00 | 0.00 | 0.00 | 72 | 1003.1 |
| 20260505190533 | 27 | 360 | 3.2 | 0.0 | 0.00 | 0.00 | 0.00 | 72 | 1003.1 |
| 20260505190036 | 28 | 360 | 1.6 | 0.0 | 0.00 | 0.00 | 0.00 | 70 | 1003.4 |
| 20260505185538 | 28 | 360 | 1.6 | 0.0 | 0.00 | 0.00 | 0.00 | 72 | 1003.4 |
| 20260505185034 | 27 | 143 | 1.6 | 0.0 | 0.00 | 0.00 | 0.00 | 72 | 1003.4 |
| 20260505184536 | 27 | 360 | 1.6 | 0.0 | 0.00 | 0.00 | 0.00 | 73 | 1003.5 |
| 20260505184038 | 27 | 360 | 1.6 | 0.0 | 0.00 | 0.00 | 0.00 | 72 | 1003.5 |
| 20260505183543 | 27 | 360 | 3.2 | 0.0 | 0.00 | 0.00 | 0.00 | 74 | 1003.5 |
| 20260505183045 | 27 | 360 | 3.2 | 0.0 | 0.00 | 0.00 | 0.00 | 74 | 1003.5 |
| 20260505182526 | 27 | 360 | 1.6 | 0.0 | 0.00 | 0.00 | 0.00 | 73 | 1003.5 |
| 20260505182029 | 27 | 360 | 1.6 | 0.0 | 0.00 | 0.00 | 0.00 | 72 | 1003.5 |
| 20260505181549 | 27 | 360 | 3.2 | 0.0 | 0.00 | 0.00 | 0.00 | 74 | 1003.6 |
| 20260505181041 | 27 | 360 | 3.2 | 0.0 | 0.00 | 0.00 | 0.00 | 76 | 1003.6 |
| 20260505180532 | 27 | 360 | 3.2 | 0.0 | 0.00 | 0.00 | 0.00 | 72 | 1003.6 |
| 20260505180034 | 27 | 360 | 1.6 | 0.0 | 0.00 | 0.00 | 0.00 | 73 | 1003.8 |
| 20260505175604 | 27 | 360 | 0.0 | 0.0 | 0.00 | 0.00 | 0.00 | 75 | 1003.8 |
| 20260505175107 | 27 | 360 | 0.0 | 0.0 | 0.00 | 0.00 | 0.00 | 75 | 1003.8 |
| 20260505174541 | 27 | 176 | 0.0 | 0.0 | 0.00 | 0.00 | 0.00 | 76 | 1003.9 |
| 20260505174044 | 26 | 360 | 0.0 | 0.0 | 0.00 | 0.00 | 0.00 | 77 | 1003.9 |
| 20260505173525 | 26 | 167 | 1.6 | 0.0 | 0.00 | 0.00 | 0.00 | 76 | 1003.9 |
| 20260505173049 | 26 | 360 | 1.6 | 0.0 | 0.00 | 0.00 | 0.00 | 80 | 1004.0 |
| 20260505172529 | 26 | 169 | 1.6 | 0.0 | 0.00 | 0.00 | 0.00 | 80 | 1004.0 |
| 20260505172032 | 25 | 360 | 0.0 | 0.0 | 0.00 | 0.00 | 0.00 | 80 | 1004.0 |
| 20260505171537 | 25 | 164 | 0.0 | 0.0 | 0.00 | 0.00 | 0.00 | 81 | 1004.1 |
| 20260505171050 | 25 | 360 | 0.0 | 0.0 | 0.00 | 0.00 | 0.00 | 80 | 1004.1 |
| 20260505170543 | 25 | 360 | 0.0 | 0.0 | 0.00 | 0.00 | 0.00 | 82 | 1004.1 |
| 20260505170025 | 25 | 214 | 0.0 | 0.0 | 0.00 | 0.00 | 0.00 | 82 | 1004.2 |
| 20260505165537 | 24 | 219 | 0.0 | 0.0 | 0.00 | 0.00 | 0.00 | 82 | 1004.1 |
| 20260505165041 | 24 | 204 | 0.0 | 0.0 | 0.00 | 0.00 | 0.00 | 84 | 1004.1 |
| 20260505164542 | 24 | 225 | 1.6 | 0.0 | 0.00 | 0.00 | 0.00 | 84 | 1004.1 |
| 20260505164056 | 23 | 187 | 0.0 | 0.0 | 0.00 | 0.00 | 0.00 | 84 | 1004.1 |
| 20260505163537 | 23 | 209 | 0.0 | 0.0 | 0.00 | 0.00 | 0.00 | 85 | 1004.1 |
| 20260505163039 | 23 | 240 | 3.2 | 0.0 | 0.00 | 0.00 | 0.00 | 85 | 1004.0 |
| 20260505162546 | 23 | 240 | 3.2 | 0.0 | 0.00 | 0.00 | 0.00 | 85 | 1004.0 |
| 20260505162027 | 23 | 155 | 1.6 | 0.0 | 0.00 | 0.00 | 0.00 | 85 | 1004.0 |
| 20260505161541 | 23 | 233 | 1.6 | 0.0 | 0.00 | 0.00 | 0.00 | 86 | 1004.0 |
| 20260505161114 | 23 | 230 | 1.6 | 0.0 | 0.00 | 0.00 | 0.00 | 85 | 1004.0 |
| 20260505160531 | 23 | 198 | 0.0 | 0.0 | 0.00 | 0.00 | 0.00 | 86 | 1004.0 |